SCP
0 0 0 0 0 0 0 0 0 0 0 0 0 0 0 0 0 0 0 0 0 0 0 0 0 0 0 0 0 0 0 0 0 0 0 0 0 0 0 0 0 0 0
0 0 0 0 0 0 0 0 0 0 0 0 0 0 0 0 0 0 0 0 0 0 0 0 0 0 0 0 0 0 0 0 0 0 0 0 0 0 0 0 0 0 0
0 0 0 0 0 0 0 0 0 0 0 0 0 0 0 0 0 0 0 0 0 0 0 0 0 0 0 0 0 0 0 0 0 0 0 0 0 0 0 0 0 0 0
0 0 0 0 0 0 0 0 0 0 0 0 0 0 0 0 0 0 0 0 0 0 0 0 0 0 0 0 0 0 0 0 0 0 0 0 0 0 0 0 0 0 0
0 0 0 0 0 0 0 0 0 0 0 0 0 0 0 0 0 0 0 0 0 0 0 0 0 0 0 0 0 0 0 0 0 0 0 0 0 0 0 0 0 0 0
0 0 0 0 0 0 0 0 0 0 0 0 0 0 0 0 0 0 0 0 0 0 0 0 0 0 0 0 0 0 0 0 0 0 0 0 0 0 0 0 0 0 0
0 0 0 0 0 0 0 0 0 0 0 0 0 0 0 0 0 0 0 0 0 0 0 0 0 0 0 0 0 0 0 0 0 0 0 0 0 0 0 0 0 0 0
0 0 0 0 0 0 0 0 0 0 0 0 0 0 0 0 0 0 0 0 0 0 0 0 0 0 0 0 0 0 0 0 0 0 0 0 0 0 0 0 0 0 0
0 0 0 0 0 0 0 0 0 0 0 0 0 0 0 0 0 0 0 0 0 0 0 0 0 0 0 0 0 0 0 0 0 0 0 0 0 0 0 0 0 0 0
0 0 0 0 0 0 0 0 0 0 0 0 0 0 0 0 0 0 0 0 0 0 0 0 0 0 0 0 0 0 0 0 0 0 0 0 0 0 0 0 0 0 0
0 0 0 0 0 0 0 0 0 0 0 0 0 0 0 0 0 0 0 0 0 0 0 0 0 0 0 0 0 0 0 0 0 0 0 0 0 0 0 0 0 0 0
0 0 0 0 0 0 0 0 0 0 0 0 0 0 0 0 0 0 0 0 0 0 0 0 0 0 0 0 0 0 0 0 0 0 0 0 0 0 0 0 0 0 0
0 0 0 0 0 0 0 0 0 0 0 0 0 0 0 0 0 0 0 0 0 0 0 0 0 0 0 0 0 0 0 0 0 0 0 0 0 0 0 0 0 0 0
0 0 0 0 0 0 0 0 0 0 0 0 0 0 0 0 0 0 0 0 0 0 0 0 0 0 0 0 0 0 0 0 0 0 0 0 0 0 0 0 0 0 0
0 0 0 0 0 0 0 0 0 0 0 0 0 0 0 0 0 0 0 0 0 0 0 0 0 0 0 0 0 0 0 0 0 0 0 0 0 0 0 0 0 0 0
0 0 0 0 0 0 0 0 0 0 0 0 0 0 0 0 0 0 0 0 0 0 0 0 0 0 0 0 0 0 0 0 0 0 0 0 0 0 0 0 0 0 0
0 0 0 0 0 0 0 0 0 0 0 0 0 0 0 0 0 0 0 0 0 0 0 0 0 0 0 0 0 0 0 0 0 0 0 0 0 0 0 0 0 0 0
0 0 0 0 0 0 0 0 0 0 0 0 0 0 0 0 0 0 0 0 0 0 0 0 0 0 0 0 0 0 0 0 0 0 0 0 0 0 0 0 0 0 0
0 0 0 0 0 0 0 0 0 0 0 0 0 0 0 0 0 0 0 0 0 0 0 0 0 0 0 0 0 0 0 0 0 0 0 0 0 0 0 0 0 0 0
0 0 0 0 0 0 0 0 0 0 0 0 0 0 0 0 0 0 0 0 0 0 0 0 0 0 0 0 0 0 0 0 0 0 0 0 0 0 0 0 0 0 0
0 0 0 0 0 0 0 0 0 0 0 0 0 0 0 0 0 0 0 0 0 0 0 0 0 0 0 0 0 0 0 0 0 0 0 0 0 0 0 0 0 0 0
0 0 0 0 0 0 0 0 0 0 0 0 0 0 0 0 0 0 0 0 0 0 0 0 0 0 0 0 0 0 0 0 0 0 0 0 0 0 0 0 0 0 0
0 0 0 0 0 0 0 0 0 0 0 0 0 0 0 0 0 0 0 0 0 0 0 0 0 0 0 0 0 0 0 0 0 0 0 0 0 0 0 0 0 0 0
0 0 0 0 0 0 0 0 0 0 0 0 0 0 0 0 0 0 0 0 0 0 0 0 0 0 0 0 0 0 0 0 0 0 0 0 0 0 0 0 0 0 0
0 0 0 0 0 0 0 0 0 0 0 0 0 0 0 0 0 0 0 0 0 0 0 0 0 0 0 0 0 0 0 0 0 0 0 0 0 0 0 0 0 0 0
0 0 0 0 0 0 0 0 0 0 0 0 0 0 0 0 0 0 0 0 0 0 0 0 0 0 0 0 0 0 0 0 0 0 0 0 0 0 0 0 0 0 0
Wind_Speed_500mb
58 60 65 65 74 70 93 93 93 90 89 87 81 81 79 74 69 67 65 62 60 59 58 58 58 55 54 51 51 50 50 48 33 34 36 34 37 35 33 29 25 23 21
66 69 73 80 79 76 85 86 89 97 100 89 84 82 77 76 73 70 70 66 65 62 62 60 61 58 57 52 52 51 51 49 50 47 40 37 38 38 35 31 31 27 24
55 68 65 83 88 87 81 78 71 90 91 88 89 84 79 75 75 75 75 73 70 66 65 62 62 61 62 59 55 52 51 51 50 53 46 41 42 41 40 37 36 33 30
58 62 64 70 73 79 78 76 62 66 74 91 87 87 86 80 81 77 78 78 76 72 69 68 64 65 63 61 59 55 52 53 52 50 45 42 47 44 42 41 40 38 35
54 59 69 67 60 50 65 70 71 71 79 77 74 74 77 78 74 84 82 76 82 77 73 73 70 65 63 62 59 58 57 57 55 52 50 48 50 48 52 47 44 40 39
41 52 58 55 54 55 55 65 67 68 64 68 64 59 70 64 67 66 63 77 78 75 80 81 75 71 69 64 61 56 55 61 60 58 56 59 51 46 49 49 49 50 52
27 35 39 44 51 53 50 55 65 60 59 64 66 56 62 69 62 57 54 61 76 76 81 85 81 77 73 65 61 54 52 52 52 47 52 54 51 45 43 49 57 53 51
25 27 30 37 39 43 45 50 49 51 51 51 51 45 48 39 40 32 31 26 34 46 81 85 81 73 68 67 62 62 58 53 54 48 45 43 46 48 44 45 49 49 52
13 22 26 28 27 30 36 37 41 44 43 45 43 48 58 47 47 43 37 49 49 50 66 73 78 81 71 62 56 60 56 57 55 51 48 54 51 49 43 50 58 59 55
11 13 15 19 27 27 30 37 38 37 36 35 34 38 40 49 60 50 48 40 44 53 48 67 74 77 86 72 64 59 56 59 55 56 56 59 59 51 49 47 52 57 57
4 5 9 13 18 24 28 26 26 29 28 29 31 32 33 39 45 52 47 48 45 51 40 58 69 76 78 81 85 80 67 57 62 53 57 64 63 56 56 56 57 55 54
11 8 9 9 10 11 11 14 16 19 20 22 23 27 31 36 34 36 44 44 44 37 36 48 64 72 74 79 82 76 68 67 58 56 63 65 63 62 59 58 57 55 54
21 20 17 14 11 12 13 11 11 9 7 4 4 6 9 15 29 41 50 45 39 39 38 49 63 64 62 61 66 73 66 56 53 62 63 63 63 60 58 59 58 53 49
27 25 23 21 18 16 14 13 9 8 6 3 1 3 8 8 11 18 26 31 29 28 31 35 44 53 57 59 61 60 55 56 59 62 62 64 59 61 59 56 54 51 49
26 26 24 22 23 22 19 16 14 10 5 2 0 2 1 2 5 10 15 20 23 26 26 29 37 43 53 58 57 53 55 55 58 61 63 58 59 61 59 54 50 50 50
26 27 26 23 22 22 22 21 18 15 11 9 7 5 2 3 7 10 14 17 18 21 27 35 41 48 53 46 49 50 53 55 61 62 62 61 59 59 60 55 54 55 50
29 24 21 21 22 22 19 20 21 20 15 12 10 7 3 1 5 9 14 18 21 23 30 32 37 41 44 43 47 53 57 58 59 63 62 59 57 56 57 57 58 56 51
35 31 31 27 22 19 18 18 14 12 14 15 13 11 7 3 2 6 12 18 20 24 25 31 36 37 37 40 44 51 57 58 57 57 58 55 55 57 61 63 60 55 58
40 38 34 32 30 27 24 21 19 16 16 15 14 12 11 9 6 7 9 14 18 24 27 30 31 33 34 37 40 44 48 50 52 54 57 58 58 60 62 62 59 60 64
34 32 31 32 31 30 27 25 23 22 21 21 20 20 16 13 10 7 4 10 16 19 21 25 28 28 30 34 39 42 44 45 46 48 53 56 56 60 63 61 68 73 65
25 24 23 21 22 22 21 20 20 19 19 18 18 17 16 15 14 11 9 9 11 16 20 23 25 24 24 24 27 31 40 45 47 47 51 56 59 64 68 76 69 59 59
23 22 20 19 17 16 15 14 13 13 12 12 13 14 14 14 13 12 11 10 11 13 17 21 24 26 26 29 32 32 31 36 43 45 48 53 61 66 57 55 56 57 56
26 24 23 20 19 17 15 15 15 15 16 16 17 17 16 17 18 18 18 17 16 16 18 18 21 24 27 27 28 32 32 32 38 42 43 45 49 48 49 52 54 55 58
28 27 26 26 25 24 23 23 22 22 22 22 21 21 21 21 21 22 22 23 24 24 22 19 22 26 27 29 29 30 32 33 35 36 35 35 37 39 45 51 54 51 49
30 29 28 28 28 28 28 27 26 26 25 25 25 25 25 25 26 27 28 28 28 28 29 29 27 22 20 20 21 22 24 30 33 34 34 35 38 40 40 41 41 42 43
31 31 31 30 29 29 30 30 29 28 28 27 27 27 27 27 28 30 31 32 33 34 34 33 33 35 37 37 35 34 32 32 32 32 32 34 35 36 38 39 37 37 39
Wind_Direction_500mb
219 232 232 229 235 231 232 236 241 238 232 233 233 231 229 228 227 226 230 231 232 234 234 233 234 231 232 228 227 226 222 215 203 215 214 228 217 219 217 223 227 219 214
224 221 226 234 234 238 241 242 244 240 235 230 233 237 234 234 234 233 231 233 234 235 236 235 234 231 233 232 232 227 226 219 208 220 222 222 214 216 220 224 218 222 212
229 230 231 243 242 237 238 240 241 238 241 240 235 234 236 235 237 239 237 236 238 241 240 240 238 235 234 232 232 230 226 224 213 225 220 221 215 215 218 217 219 218 215
232 227 232 238 249 246 242 234 241 250 244 242 243 242 240 236 241 236 239 237 238 240 243 243 241 239 241 236 233 232 229 227 217 219 218 214 216 215 218 220 217 217 217
233 231 231 233 244 253 240 241 245 250 246 250 245 251 242 243 243 240 234 240 236 239 242 243 243 240 242 239 237 231 229 229 221 219 220 217 214 214 220 221 220 219 217
237 242 241 239 235 229 246 244 240 237 243 254 250 262 256 250 249 240 248 240 240 237 243 243 242 240 237 233 234 234 237 231 226 221 226 226 224 223 221 224 222 214 216
234 241 243 237 240 244 244 243 242 236 238 243 243 256 256 248 247 243 250 257 248 237 242 242 244 241 237 230 228 227 229 232 237 238 235 238 236 234 230 228 227 228 228
225 235 241 246 242 243 244 241 237 237 240 242 237 234 249 246 245 237 259 265 264 265 254 242 243 241 236 232 226 221 219 220 227 225 232 244 250 247 242 240 238 230 227
197 218 232 232 238 241 244 245 240 237 238 238 238 239 238 235 230 241 254 254 255 249 249 249 247 243 228 224 226 224 219 219 224 226 235 242 241 241 237 232 224 223 224
215 224 223 225 229 234 234 237 238 242 243 242 241 242 242 244 238 235 238 245 252 246 245 251 243 236 224 215 216 219 220 226 223 229 236 239 236 236 233 233 237 230 224
169 204 212 229 228 227 228 227 226 227 229 232 233 235 235 235 216 222 229 244 251 251 249 247 237 228 223 219 216 215 215 219 228 230 238 238 236 233 230 225 225 226 229
124 136 139 148 147 146 171 189 196 196 205 216 225 228 227 227 227 226 228 240 243 255 264 255 237 231 226 216 215 219 219 222 220 232 239 237 234 234 229 227 224 225 225
95 93 91 92 98 110 106 109 108 118 137 178 208 243 229 224 232 236 235 232 240 256 262 252 240 231 220 215 218 223 225 220 227 233 235 236 235 237 230 224 222 224 226
96 94 92 92 95 97 99 100 111 98 60 31 74 218 242 252 244 239 230 232 235 246 251 249 244 232 226 224 227 233 215 224 232 236 232 231 232 232 229 226 226 227 228
92 91 87 85 84 83 84 85 87 91 90 94 307 332 332 231 218 231 232 225 225 233 239 228 216 214 211 217 222 216 224 227 231 230 230 231 231 233 229 227 226 229 230
93 89 87 86 84 83 68 77 81 76 76 77 67 52 46 257 235 213 226 228 232 232 224 224 219 217 218 219 221 226 232 233 233 230 230 231 234 235 232 228 226 229 231
82 82 87 87 83 83 90 84 66 71 71 72 78 80 97 183 217 216 225 232 233 235 236 245 237 228 225 224 230 233 237 237 233 233 236 238 235 235 233 231 229 230 233
77 79 78 78 80 80 76 76 84 80 55 55 56 52 49 59 168 199 214 221 224 229 232 239 241 244 242 242 242 243 244 246 243 240 241 242 238 235 232 230 229 236 249
71 68 68 70 70 71 74 73 68 60 50 39 32 29 30 10 333 267 231 220 228 234 244 251 250 256 257 255 252 248 247 249 251 249 245 242 241 236 233 233 238 250 253
65 64 64 66 67 66 64 64 62 59 53 46 38 36 33 27 22 12 310 250 247 252 257 264 268 268 263 259 253 249 246 244 242 243 242 240 239 239 236 243 259 257 254
48 47 46 46 47 48 48 47 47 46 46 42 38 29 23 20 18 2 342 312 290 276 268 261 260 254 253 257 263 262 256 248 244 241 245 247 243 239 245 257 257 249 244
26 24 21 19 15 11 10 7 5 5 2 359 355 354 354 354 352 343 331 319 302 286 277 274 266 257 253 253 252 251 254 257 252 249 248 247 247 252 253 252 247 241 255
6 4 1 356 352 346 338 331 326 321 317 314 312 311 312 313 313 314 319 322 317 300 287 281 269 261 258 256 256 249 246 249 252 254 255 252 254 251 246 250 249 255 263
353 351 348 343 340 336 331 327 322 317 312 307 303 299 295 292 289 286 286 287 288 293 298 297 285 273 267 261 255 251 250 248 246 245 246 246 248 247 250 257 260 257 244
341 340 337 334 331 328 324 320 317 312 309 307 303 299 296 294 292 288 285 283 282 281 279 278 279 278 273 267 266 263 261 253 252 247 247 248 250 250 249 246 245 242 237
330 329 328 325 322 318 314 311 308 306 306 305 303 300 298 296 293 290 288 286 284 280 276 273 271 269 267 266 266 267 265 261 258 255 254 249 243 242 245 244 240 239 241
Wind_Speed_850mb
58 60 65 65 74 70 93 93 93 90 89 87 81 81 79 74 69 67 65 62 60 59 58 58 58 55 54 51 51 50 50 48 33 34 36 34 37 35 33 29 25 23 21
66 69 73 80 79 76 85 86 89 97 100 89 84 82 77 76 73 70 70 66 65 62 62 60 61 58 57 52 52 51 51 49 50 47 40 37 38 38 35 31 31 27 24
55 68 65 83 88 87 81 78 71 90 91 88 89 84 79 75 75 75 75 73 70 66 65 62 62 61 62 59 55 52 51 51 50 53 46 41 42 41 40 37 36 33 30
58 62 64 70 73 79 78 76 62 66 74 91 87 87 86 80 81 77 78 78 76 72 69 68 64 65 63 61 59 55 52 53 52 50 45 42 47 44 42 41 40 38 35
54 59 69 67 60 50 65 70 71 71 79 77 74 74 77 78 74 84 82 76 82 77 73 73 70 65 63 62 59 58 57 57 55 52 50 48 50 48 52 47 44 40 39
41 52 58 55 54 55 55 65 67 68 64 68 64 59 70 64 67 66 63 77 78 75 80 81 75 71 69 64 61 56 55 61 60 58 56 59 51 46 49 49 49 50 52
27 35 39 44 51 53 50 55 65 60 59 64 66 56 62 69 62 57 54 61 76 76 81 85 81 77 73 65 61 54 52 52 52 47 52 54 51 45 43 49 57 53 51
25 27 30 37 39 43 45 50 49 51 51 51 51 45 48 39 40 32 31 26 34 46 81 85 81 73 68 67 62 62 58 53 54 48 45 43 46 48 44 45 49 49 52
13 22 26 28 27 30 36 37 41 44 43 45 43 48 58 47 47 43 37 49 49 50 66 73 78 81 71 62 56 60 56 57 55 51 48 54 51 49 43 50 58 59 55
11 13 15 19 27 27 30 37 38 37 36 35 34 38 40 49 60 50 48 40 44 53 48 67 74 77 86 72 64 59 56 59 55 56 56 59 59 51 49 47 52 57 57
4 5 9 13 18 24 28 26 26 29 28 29 31 32 33 39 45 52 47 48 45 51 40 58 69 76 78 81 85 80 67 57 62 53 57 64 63 56 56 56 57 55 54
11 8 9 9 10 11 11 14 16 19 20 22 23 27 31 36 34 36 44 44 44 37 36 48 64 72 74 79 82 76 68 67 58 56 63 65 63 62 59 58 57 55 54
21 20 17 14 11 12 13 11 11 9 7 4 4 6 9 15 29 41 50 45 39 39 38 49 63 64 62 61 66 73 66 56 53 62 63 63 63 60 58 59 58 53 49
27 25 23 21 18 16 14 13 9 8 6 3 1 3 8 8 11 18 26 31 29 28 31 35 44 53 57 59 61 60 55 56 59 62 62 64 59 61 59 56 54 51 49
26 26 24 22 23 22 19 16 14 10 5 2 0 2 1 2 5 10 15 20 23 26 26 29 37 43 53 58 57 53 55 55 58 61 63 58 59 61 59 54 50 50 50
26 27 26 23 22 22 22 21 18 15 11 9 7 5 2 3 7 10 14 17 18 21 27 35 41 48 53 46 49 50 53 55 61 62 62 61 59 59 60 55 54 55 50
29 24 21 21 22 22 19 20 21 20 15 12 10 7 3 1 5 9 14 18 21 23 30 32 37 41 44 43 47 53 57 58 59 63 62 59 57 56 57 57 58 56 51
35 31 31 27 22 19 18 18 14 12 14 15 13 11 7 3 2 6 12 18 20 24 25 31 36 37 37 40 44 51 57 58 57 57 58 55 55 57 61 63 60 55 58
40 38 34 32 30 27 24 21 19 16 16 15 14 12 11 9 6 7 9 14 18 24 27 30 31 33 34 37 40 44 48 50 52 54 57 58 58 60 62 62 59 60 64
34 32 31 32 31 30 27 25 23 22 21 21 20 20 16 13 10 7 4 10 16 19 21 25 28 28 30 34 39 42 44 45 46 48 53 56 56 60 63 61 68 73 65
25 24 23 21 22 22 21 20 20 19 19 18 18 17 16 15 14 11 9 9 11 16 20 23 25 24 24 24 27 31 40 45 47 47 51 56 59 64 68 76 69 59 59
23 22 20 19 17 16 15 14 13 13 12 12 13 14 14 14 13 12 11 10 11 13 17 21 24 26 26 29 32 32 31 36 43 45 48 53 61 66 57 55 56 57 56
26 24 23 20 19 17 15 15 15 15 16 16 17 17 16 17 18 18 18 17 16 16 18 18 21 24 27 27 28 32 32 32 38 42 43 45 49 48 49 52 54 55 58
28 27 26 26 25 24 23 23 22 22 22 22 21 21 21 21 21 22 22 23 24 24 22 19 22 26 27 29 29 30 32 33 35 36 35 35 37 39 45 51 54 51 49
30 29 28 28 28 28 28 27 26 26 25 25 25 25 25 25 26 27 28 28 28 28 29 29 27 22 20 20 21 22 24 30 33 34 34 35 38 40 40 41 41 42 43
31 31 31 30 29 29 30 30 29 28 28 27 27 27 27 27 28 30 31 32 33 34 34 33 33 35 37 37 35 34 32 32 32 32 32 34 35 36 38 39 37 37 39
Wind_Direction_850mb
219 232 232 229 235 231 232 236 241 238 232 233 233 231 229 228 227 226 230 231 232 234 234 233 234 231 232 228 227 226 222 215 203 215 214 228 217 219 217 223 227 219 214
224 221 226 234 234 238 241 242 244 240 235 230 233 237 234 234 234 233 231 233 234 235 236 235 234 231 233 232 232 227 226 219 208 220 222 222 214 216 220 224 218 222 212
229 230 231 243 242 237 238 240 241 238 241 240 235 234 236 235 237 239 237 236 238 241 240 240 238 235 234 232 232 230 226 224 213 225 220 221 215 215 218 217 219 218 215
232 227 232 238 249 246 242 234 241 250 244 242 243 242 240 236 241 236 239 237 238 240 243 243 241 239 241 236 233 232 229 227 217 219 218 214 216 215 218 220 217 217 217
233 231 231 233 244 253 240 241 245 250 246 250 245 251 242 243 243 240 234 240 236 239 242 243 243 240 242 239 237 231 229 229 221 219 220 217 214 214 220 221 220 219 217
237 242 241 239 235 229 246 244 240 237 243 254 250 262 256 250 249 240 248 240 240 237 243 243 242 240 237 233 234 234 237 231 226 221 226 226 224 223 221 224 222 214 216
234 241 243 237 240 244 244 243 242 236 238 243 243 256 256 248 247 243 250 257 248 237 242 242 244 241 237 230 228 227 229 232 237 238 235 238 236 234 230 228 227 228 228
225 235 241 246 242 243 244 241 237 237 240 242 237 234 249 246 245 237 259 265 264 265 254 242 243 241 236 232 226 221 219 220 227 225 232 244 250 247 242 240 238 230 227
197 218 232 232 238 241 244 245 240 237 238 238 238 239 238 235 230 241 254 254 255 249 249 249 247 243 228 224 226 224 219 219 224 226 235 242 241 241 237 232 224 223 224
215 224 223 225 229 234 234 237 238 242 243 242 241 242 242 244 238 235 238 245 252 246 245 251 243 236 224 215 216 219 220 226 223 229 236 239 236 236 233 233 237 230 224
169 204 212 229 228 227 228 227 226 227 229 232 233 235 235 235 216 222 229 244 251 251 249 247 237 228 223 219 216 215 215 219 228 230 238 238 236 233 230 225 225 226 229
124 136 139 148 147 146 171 189 196 196 205 216 225 228 227 227 227 226 228 240 243 255 264 255 237 231 226 216 215 219 219 222 220 232 239 237 234 234 229 227 224 225 225
95 93 91 92 98 110 106 109 108 118 137 178 208 243 229 224 232 236 235 232 240 256 262 252 240 231 220 215 218 223 225 220 227 233 235 236 235 237 230 224 222 224 226
96 94 92 92 95 97 99 100 111 98 60 31 74 218 242 252 244 239 230 232 235 246 251 249 244 232 226 224 227 233 215 224 232 236 232 231 232 232 229 226 226 227 228
92 91 87 85 84 83 84 85 87 91 90 94 307 332 332 231 218 231 232 225 225 233 239 228 216 214 211 217 222 216 224 227 231 230 230 231 231 233 229 227 226 229 230
93 89 87 86 84 83 68 77 81 76 76 77 67 52 46 257 235 213 226 228 232 232 224 224 219 217 218 219 221 226 232 233 233 230 230 231 234 235 232 228 226 229 231
82 82 87 87 83 83 90 84 66 71 71 72 78 80 97 183 217 216 225 232 233 235 236 245 237 228 225 224 230 233 237 237 233 233 236 238 235 235 233 231 229 230 233
77 79 78 78 80 80 76 76 84 80 55 55 56 52 49 59 168 199 214 221 224 229 232 239 241 244 242 242 242 243 244 246 243 240 241 242 238 235 232 230 229 236 249
71 68 68 70 70 71 74 73 68 60 50 39 32 29 30 10 333 267 231 220 228 234 244 251 250 256 257 255 252 248 247 249 251 249 245 242 241 236 233 233 238 250 253
65 64 64 66 67 66 64 64 62 59 53 46 38 36 33 27 22 12 310 250 247 252 257 264 268 268 263 259 253 249 246 244 242 243 242 240 239 239 236 243 259 257 254
48 47 46 46 47 48 48 47 47 46 46 42 38 29 23 20 18 2 342 312 290 276 268 261 260 254 253 257 263 262 256 248 244 241 245 247 243 239 245 257 257 249 244
26 24 21 19 15 11 10 7 5 5 2 359 355 354 354 354 352 343 331 319 302 286 277 274 266 257 253 253 252 251 254 257 252 249 248 247 247 252 253 252 247 241 255
6 4 1 356 352 346 338 331 326 321 317 314 312 311 312 313 313 314 319 322 317 300 287 281 269 261 258 256 256 249 246 249 252 254 255 252 254 251 246 250 249 255 263
353 351 348 343 340 336 331 327 322 317 312 307 303 299 295 292 289 286 286 287 288 293 298 297 285 273 267 261 255 251 250 248 246 245 246 246 248 247 250 257 260 257 244
341 340 337 334 331 328 324 320 317 312 309 307 303 299 296 294 292 288 285 283 282 281 279 278 279 278 273 267 266 263 261 253 252 247 247 248 250 250 249 246 245 242 237
330 329 328 325 322 318 314 311 308 306 306 305 303 300 298 296 293 290 288 286 284 280 276 273 271 269 267 266 266 267 265 261 258 255 254 249 243 242 245 244 240 239 241